Location: Dillon
(41.1766°N, 107.0923°W)
Time: 05:05:10
(UTC+00:00)

SO-50 - Pass Details

Date: 12 July 2022
Orbit: 584 x 698 km, 64.6° (Epoch: 18 August)

Event Time Altitude Azimuth Distance (km) Brightness Sun altitude
Rises 06:14:02 0° 266° (W) 2,980 ? -25.3°
Reaches altitude 10° 06:17:25 10° 292° (WNW) 2,097 ? -25.5°
Maximum altitude 06:19:55 14° 324° (NW) 1,857 ? -25.6°
Drops below altitude 10° 06:22:28 10° 356° (N) 2,133 ? -25.7°
Sets 06:25:58 0° 21° (NNE) 3,070 ? -25.9°
